Regional Weather Roundup
Issued by NWS

Home | Current Version | Previous Version | Text Only | Print | Product List | Glossary On
Versions: 1 2 3 4 5 6 7 8 9 10 11 12 13 14 15 16 17 18 19 20 21 22 23 24 25 26 27 28 29 30 31 32 33 34 35 36 37 38 39 40 41 42 43 44 45 46 47 48 49 50
000
ASUS44 KMEG 051810
RWRTN
TENNESSEE HOURLY STATE WEATHER ROUNDUP
NATIONAL WEATHER SERVICE MEMPHIS TN
100 PM CDT TUE MAY 05 2015

TNZ002-004-019-021-049-052-054-088>092-051900-
WEST TENNESSEE

CITY           SKY/WX    TMP DP  RH WIND       PRES   REMARKS
MEMPHIS INTL   MOSUNNY   83  56  39 S12       30.21F
NWS MEMPHIS      N/A     83 N/A N/A MISG        N/A
JACKSON        MOSUNNY   81  54  39 SE8       30.22F
DYERSBURG      PTSUNNY   82  54  36 SW6       30.22F
PARIS          MOSUNNY   81  55  41 VRB7      30.24F
LEXINGTON      SUNNY     81  54  39 S5        30.24F
$$

TNZ008-025-027-028-033-062-065-066-051900-
NORTH MIDDLE TENNESSEE

CITY           SKY/WX    TMP DP  RH WIND       PRES   REMARKS
NASHVILLE      MOSUNNY   83  51  33 S8        30.26F
CLARKSVILLE    MOSUNNY   82  55  39 S9        30.24F
SMYRNA         MOSUNNY   82  54  38 CALM      30.27F
COOKEVILLE     SUNNY     82  54  36 CALM      30.28F
CROSSVILLE     MOSUNNY   78  49  35 NE6       30.32F
$$

TNZ061-075-076-078-094-096-097-051900-
SOUTH MIDDLE TENNESSEE

CITY           SKY/WX    TMP DP  RH WIND       PRES   REMARKS
FAYETTEVILLE     N/A     79  52  38 S5        30.28F
TULLAHOMA      SUNNY     79  48  34 CALM      30.30F
WINCHESTER     MOSUNNY   81  54  39 SE6       30.28F
MCMINNVILLE    SUNNY     82  55  39 S6        30.29F
COLUMBIA       SUNNY     82  54  36 SW3       30.25F
SHELBYVILLE    MOSUNNY   82  55  39 VRB3      30.28F
$$

TNZ017-018-042-046-047-051900-
NORTHEAST TENNESSEE

CITY           SKY/WX    TMP DP  RH WIND       PRES   REMARKS
TRI CITIES     MOSUNNY   80  51  36 CALM      30.31F
ELIZABETHTON   CLEAR     79  52  38 NW7       30.30F
$$

TNZ012-013-036-069-073-074-051900-
CENTRAL EAST TENNESSEE

CITY           SKY/WX    TMP DP  RH WIND       PRES   REMARKS
KNOXVILLE      MOSUNNY   80  53  39 CALM      30.29F
OAK RIDGE      SUNNY     83  54  36 CALM      30.30F
GATLINBURG     PTCLDY    79  52  38 N6        30.29F
MORRISTOWN     CLEAR     81  54  39 VRB3      30.31F
$$

TNZ083-085-099-051900-
SOUTHEAST TENNESSEE

CITY           SKY/WX    TMP DP  RH WIND       PRES   REMARKS
CHATTANOOGA    MOSUNNY   81  53  37 VRB3      30.28F
$$

SKY/WX REPORTED AS FAIR MEANS FEW OR NO CLOUDS BELOW
12 THOUSAND FEET.



USA.gov is the U.S. government's official web portal to all federal, state and local government web resources and services.